Darstellungsparameter: Aktuell verwendete Einstellungen:
Skalierung der Graphiken ... ?
xyx+y,   Skalierungsfaktor:      Skalierung: Modus: x, Faktor: 1
Darstellungszeitraum ... ?
Vom - - bis: - -   Zeitraum: 13.08.2011 - 12.08.2014
Min/Max/Avg-Anzeige ... ?
Zeige MMA aktuell
Zeige MMA Monat
Zeige MMA alles
Zeige --A aktuell
Zeige --A Monat
Zeige --A alles
Keine MMA-Anzeige
MMA:
Minimum Maximum Average (ber die Originaldaten)
MMA-Basis: 13.08.2011 - 12.08.2014
Quicknavigation für Darstellung... ?
Tage:      1T, 2T, 3T, 5T -1T -2T -3T -5T +1T +2T +3T +5T
Wochen: 1W, 2W, 3W -1W -2W -3W +1W +2W +3W
Monate: 1M, 3M, 6M -1M -3M -6M +1M +3M +6M
Jahre:    1J, 3J, 5J, 10J -1J -3J -5J -10J +1J +3J +5J +10J
Nutze für die Darstellung ... ?
Originaldaten oder ...
Mittelwerte Minima Maxima auf...
Stundenbasis Tagesbasis Wochenbasis
Monatsbasis Jahresbasis      Datenbasis: Mittelwerte auf Tagesbasis
Darstellen als:
Statistik (Auto) Statistik J:M      Darstellung:
Zur Graphik,    zurück zur Übersicht aller Sensoren.
 
Tabellarische Datenbersicht: ?
 
Sensor: Nr:Datum:Temp:Feuchte:Taupunkt:
Aussen-T/F 1 13-08-2011 00:00:00 19.08833 C 72.0417 % 13.93 C
2 14-08-2011 00:00:00 18.79167 C 79.1417 % 15.1 C
3 15-08-2011 00:00:00 19.07917 C 64.2167 % 12.17 C
4 16-08-2011 00:00:00 18.73083 C 60.4333 % 10.92 C
5 17-08-2011 00:00:00 18.89 C 66.1833 % 12.45 C
6 18-08-2011 00:00:00 22.63167 C 61.2417 % 14.79 C
7 19-08-2011 00:00:00 19.24667 C 68.7333 % 13.36 C
8 20-08-2011 00:00:00 18.59833 C 65.7167 % 12.06 C
9 21-08-2011 00:00:00 20.63583 C 69.0417 % 14.76 C
10 22-08-2011 00:00:00 23.83613 C 62.0504 % 16.13 C
11 23-08-2011 00:00:00 23.46583 C 60.9833 % 15.51 C
12 24-08-2011 00:00:00 20.97833 C 67.3417 % 14.7 C
13 25-08-2011 00:00:00 20.68833 C 69.8333 % 14.99 C
14 26-08-2011 00:00:00 20.87 C 74.2833 % 16.12 C
15 27-08-2011 00:00:00 15.035 C 76.8333 % 11.01 C
16 28-08-2011 00:00:00 15.25583 C 63.6333 % 8.41 C
17 29-08-2011 00:00:00 14.68667 C 59.3667 % 6.86 C
18 30-08-2011 00:00:00 12.15833 C 69.4583 % 6.74 C
19 31-08-2011 00:00:00 13.1325 C 69.1000 % 7.6 C
20 01-09-2011 00:00:00 15.16083 C 67.3250 % 9.15 C
21 02-09-2011 00:00:00 17.55667 C 71.4250 % 12.33 C
22 03-09-2011 00:00:00 20.71597 C 69.7311 % 14.99 C
23 04-09-2011 00:00:00 21.65833 C 66.8333 % 15.23 C
24 05-09-2011 00:00:00 17.79667 C 52.4583 % 7.95 C
25 06-09-2011 00:00:00 15.93333 C 57.8333 % 7.64 C
Sensor: Nr:Datum:Temp:Feuchte:Taupunkt:
Aussen-T/F 26 07-09-2011 00:00:00 16.43 C 56.2417 % 7.7 C
27 08-09-2011 00:00:00 15.3775 C 59.5333 % 7.55 C
28 09-09-2011 00:00:00 18.46 C 74.5500 % 13.86 C
29 10-09-2011 00:00:00 21.15667 C 77.6667 % 17.1 C
30 11-09-2011 00:00:00 17.895 C 81.2500 % 14.64 C
31 12-09-2011 00:00:00 17.43583 C 68.8250 % 11.65 C
32 13-09-2011 00:00:00 18.005 C 66.8333 % 11.75 C
33 14-09-2011 00:00:00 14.43917 C 60.2417 % 6.84 C
34 15-09-2011 00:00:00 13.91583 C 66.4583 % 7.78 C
35 16-09-2011 00:00:00 12.79667 C 78.8750 % 9.23 C
36 17-09-2011 00:00:00 16.78824 C 67.5798 % 10.76 C
37 18-09-2011 00:00:00 12.7625 C 73.2333 % 8.1 C
38 19-09-2011 00:00:00 12.76833 C 68.7167 % 7.17 C
39 20-09-2011 00:00:00 12.41333 C 74.0667 % 7.93 C
40 21-09-2011 00:00:00 13.775 C 70.1333 % 8.43 C
41 22-09-2011 00:00:00 15.79167 C 59.3417 % 7.89 C
42 23-09-2011 00:00:00 14.20917 C 64.8250 % 7.69 C
43 24-09-2011 00:00:00 12.8025 C 74.2750 % 8.34 C
44 25-09-2011 00:00:00 14.1125 C 76.8000 % 10.11 C
45 26-09-2011 00:00:00 15.74917 C 76.1250 % 11.56 C
46 27-09-2011 00:00:00 17.1525 C 74.8583 % 12.66 C
47 28-09-2011 00:00:00 16.71 C 77.5333 % 12.77 C
48 29-09-2011 00:00:00 16.13167 C 75.2500 % 11.75 C
49 30-09-2011 00:00:00 14.48824 C 75.4034 % 10.2 C
50 01-10-2011 00:00:00 14.3525 C 77.3833 % 10.45 C
Sensor: Nr:Datum:Temp:Feuchte:Taupunkt:
Aussen-T/F 51 02-10-2011 00:00:00 14.74 C 77.1417 % 10.78 C
52 03-10-2011 00:00:00 15.125 C 75.4750 % 10.82 C
53 04-10-2011 00:00:00 16.96167 C 63.1167 % 9.9 C
54 05-10-2011 00:00:00 17.94667 C 59.6250 % 9.98 C
55 06-10-2011 00:00:00 14.175 C 69.3833 % 8.66 C
56 07-10-2011 00:00:00 9.92583 C 66.5083 % 3.99 C
57 08-10-2011 00:00:00 9.01167 C 73.3417 % 4.51 C
58 09-10-2011 00:00:00 9.11667 C 79.0750 % 5.69 C
59 10-10-2011 00:00:00 16.5475 C 68.2167 % 10.67 C
60 11-10-2011 00:00:00 16.37917 C 62.5417 % 9.22 C
61 12-10-2011 00:00:00 15.74333 C 66.8000 % 9.59 C
62 13-10-2011 00:00:00 10.145 C 73.3667 % 5.6 C
63 14-10-2011 00:00:00 6.14286 C 78.8151 % 2.75 C
64 15-10-2011 00:00:00 4.65417 C 78.8000 % 1.3 C
65 16-10-2011 00:00:00 4.29833 C 79.7583 % 1.12 C
66 17-10-2011 00:00:00 6.42917 C 82.1833 % 3.62 C
67 18-10-2011 00:00:00 8.99833 C 81.0167 % 5.92 C
68 19-10-2011 00:00:00 8.2025 C 70.7333 % 3.21 C
69 20-10-2011 00:00:00 5.4275 C 79.8333 % 2.23 C
70 21-10-2011 00:00:00 3.16333 C 87.6917 % 1.32 C
71 22-10-2011 00:00:00 3.45333 C 82.2083 % 0.71 C
72 23-10-2011 00:00:00 2.44833 C 85.8917 % 0.33 C
73 24-10-2011 00:00:00 5.85083 C 75.8167 % 1.92 C
74 25-10-2011 00:00:00 9.17417 C 73.4750 % 4.69 C
75 26-10-2011 00:00:00 9.305 C 71.1750 % 4.36 C
Sensor: Nr:Datum:Temp:Feuchte:Taupunkt:
Aussen-T/F 76 27-10-2011 00:00:00 5.69333 C 85.4917 % 3.46 C
77 28-10-2011 00:00:00 8.32857 C 86.7731 % 6.26 C
78 29-10-2011 00:00:00 10.61667 C 83.0000 % 7.85 C
79 30-10-2011 00:00:00 12.2192 C 86.1680 % 9.98 C
80 31-10-2011 00:00:00 11.39 C 86.4000 % 9.2 C
81 01-11-2011 00:00:00 9.17333 C 84.4083 % 6.69 C
82 02-11-2011 00:00:00 10.59667 C 80.8500 % 7.45 C
83 03-11-2011 00:00:00 11.35583 C 71.9417 % 6.48 C
84 04-11-2011 00:00:00 10.15333 C 80.0500 % 6.87 C
85 05-11-2011 00:00:00 10.31333 C 76.4167 % 6.35 C
86 06-11-2011 00:00:00 8.90583 C 84.0333 % 6.36 C
87 07-11-2011 00:00:00 8.85 C 80.9583 % 5.77 C
88 08-11-2011 00:00:00 5.84583 C 87.4583 % 3.93 C
89 09-11-2011 00:00:00 6.5025 C 86.5500 % 4.43 C
90 10-11-2011 00:00:00 6.29328 C 81.6218 % 3.39 C
91 11-11-2011 00:00:00 6.25417 C 76.0750 % 2.36 C
92 12-11-2011 00:00:00 4.20083 C 82.4417 % 1.48 C
93 13-11-2011 00:00:00 4.15833 C 85.7750 % 1.99 C
94 14-11-2011 00:00:00 0.35917 C 92.4167 % -0.72 C
95 15-11-2011 00:00:00 0.25583 C 92.2667 % -0.85 C
96 16-11-2011 00:00:00 -1.305 C 91.7000 % -2.48 C
97 17-11-2011 00:00:00 3.935 C 80.2583 % 0.85 C
98 18-11-2011 00:00:00 7.49833 C 83.7333 % 4.93 C
99 19-11-2011 00:00:00 5.435 C 89.5667 % 3.86 C
100 20-11-2011 00:00:00 6.58083 C 80.3583 % 3.45 C
Sensor: Nr:Datum:Temp:Feuchte:Taupunkt:
Aussen-T/F 101 21-11-2011 00:00:00 1.40917 C 92.2250 % 0.29 C
102 22-11-2011 00:00:00 1.14083 C 92.1583 % 0.01 C
103 23-11-2011 00:00:00 1.59583 C 92.8833 % 0.57 C
104 24-11-2011 00:00:00 2.37083 C 92.1167 % 1.23 C
105 25-11-2011 00:00:00 1.0775 C 85.7083 % -1.04 C
106 26-11-2011 00:00:00 6.25167 C 75.0583 % 2.17 C
107 27-11-2011 00:00:00 7.40833 C 70.7917 % 2.46 C
108 28-11-2011 00:00:00 0.83833 C 92.3250 % -0.26 C
109 29-11-2011 00:00:00 1.88167 C 89.6667 % 0.37 C
110 30-11-2011 00:00:00 4.85083 C 85.9250 % 2.7 C
111 01-12-2011 00:00:00 5.52417 C 87.8333 % 3.67 C
112 02-12-2011 00:00:00 7.12667 C 77.6917 % 3.5 C
113 03-12-2011 00:00:00 6.26583 C 76.7250 % 2.49 C
114 04-12-2011 00:00:00 8.2975 C 80.9000 % 5.22 C
115 05-12-2011 00:00:00 4.38417 C 71.7167 % -0.26 C
116 06-12-2011 00:00:00 4.445 C 67.2500 % -1.08 C
117 07-12-2011 00:00:00 5.57833 C 70.8167 % 0.71 C
118 08-12-2011 00:00:00 6.22333 C 62.1250 % -0.48 C
119 09-12-2011 00:00:00 5.94583 C 71.2167 % 1.14 C
120 10-12-2011 00:00:00 1.885 C 76.4500 % -1.81 C
121 11-12-2011 00:00:00 0.43667 C 83.0417 % -2.1 C
122 12-12-2011 00:00:00 5.96583 C 76.8000 % 2.21 C
123 13-12-2011 00:00:00 6.86417 C 68.8250 % 1.55 C
124 14-12-2011 00:00:00 6.68371 C 80.3447 % 3.55 C
125 15-12-2011 00:00:00 6.13646 C 77.7778 % 2.56 C
Sensor: Nr:Datum:Temp:Feuchte:Taupunkt:
Aussen-T/F 126 16-12-2011 00:00:00 6.07222 C 83.0347 % 3.41 C
127 17-12-2011 00:00:00 3.63507 C 84.7535 % 1.31 C
128 18-12-2011 00:00:00 2.25764 C 86.7604 % 0.29 C
129 19-12-2011 00:00:00 1.70208 C 86.1250 % -0.36 C
130 20-12-2011 00:00:00 2.28715 C 90.9132 % 0.96 C
131 21-12-2011 00:00:00 4.19792 C 87.9167 % 2.38 C
132 22-12-2011 00:00:00 6.57917 C 94.6910 % 5.79 C
133 23-12-2011 00:00:00 8.41806 C 90.8021 % 7 C
134 24-12-2011 00:00:00 5.63368 C 83.5243 % 3.07 C
135 25-12-2011 00:00:00 5.68472 C 86.3750 % 3.59 C
136 26-12-2011 00:00:00 8.12222 C 89.4931 % 6.5 C
137 27-12-2011 00:00:00 8.25139 C 89.0139 % 6.55 C
138 28-12-2011 00:00:00 5.71424 C 86.6597 % 3.67 C
139 29-12-2011 00:00:00 5.51667 C 80.4757 % 2.43 C
140 30-12-2011 00:00:00 4.24861 C 83.3125 % 1.68 C
141 31-12-2011 00:00:00 5.15729 C 93.6007 % 4.21 C
142 01-01-2012 00:00:00 12.02807 C 88.3754 % 10.17 C
143 02-01-2012 00:00:00 8.87847 C 88.2917 % 7.05 C
144 03-01-2012 00:00:00 7.43403 C 81.7917 % 4.53 C
145 04-01-2012 00:00:00 6.56875 C 76.5174 % 2.75 C
146 05-01-2012 00:00:00 6.88368 C 80.3785 % 3.75 C
147 06-01-2012 00:00:00 5.40208 C 81.6389 % 2.52 C
148 07-01-2012 00:00:00 5.54653 C 84.9201 % 3.22 C
149 08-01-2012 00:00:00 5.96042 C 84.6111 % 3.57 C
150 09-01-2012 00:00:00 6.11424 C 89.9479 % 4.59 C
Sensor: Nr:Datum:Temp:Feuchte:Taupunkt:
Aussen-T/F 151 10-01-2012 00:00:00 6.93056 C 91.1319 % 5.59 C
152 11-01-2012 00:00:00 8.11597 C 82.0938 % 5.25 C
153 12-01-2012 00:00:00 8.18819 C 82.4028 % 5.37 C
154 13-01-2012 00:00:00 5.12569 C 75.8264 % 1.22 C
155 14-01-2012 00:00:00 3.95417 C 78.8958 % 0.63 C
156 15-01-2012 00:00:00 -0.23715 C 94.8993 % -0.95 C
157 16-01-2012 00:00:00 -1.80312 C 94.0521 % -2.63 C
158 17-01-2012 00:00:00 -2.78368 C 92.5069 % -3.83 C
159 18-01-2012 00:00:00 -0.12708 C 89.9653 % -1.57 C
160 19-01-2012 00:00:00 6.67639 C 90.1007 % 5.17 C
161 20-01-2012 00:00:00 4.025 C 86.9236 % 2.05 C
162 21-01-2012 00:00:00 5.73681 C 89.5382 % 4.15 C
163 22-01-2012 00:00:00 6.85764 C 76.0660 % 2.94 C
164 23-01-2012 00:00:00 5.22708 C 82.6806 % 2.53 C
165 24-01-2012 00:00:00 3.1191 C 90.7222 % 1.75 C
166 25-01-2012 00:00:00 0.47708 C 94.7813 % -0.26 C
167 26-01-2012 00:00:00 1.84132 C 84.3368 % -0.51 C
168 27-01-2012 00:00:00 2.58437 C 92.0104 % 1.42 C
169 28-01-2012 00:00:00 2.69896 C 87.8090 % 0.89 C
170 29-01-2012 00:00:00 0.84583 C 81.3299 % -1.98 C
171 30-01-2012 00:00:00 -0.00208 C 80.3854 % -2.97 C
172 31-01-2012 00:00:00 -1.90972 C 70.0243 % -6.64 C
173 01-02-2012 00:00:00 -5.28403 C 61.1667 % -11.58 C
174 02-02-2012 00:00:00 -7.12396 C 51.7535 % -15.35 C
175 03-02-2012 00:00:00 -8.52361 C 68.2153 % -13.32 C
Sensor: Nr:Datum:Temp:Feuchte:Taupunkt:
Aussen-T/F 176 04-02-2012 00:00:00 -8.31389 C 77.7396 % -11.5 C
177 05-02-2012 00:00:00 -9.04861 C 72.3715 % -13.1 C
178 06-02-2012 00:00:00 -9.67674 C 69.6979 % -14.16 C
179 07-02-2012 00:00:00 -9.19832 C 69.3067 % -13.77 C
180 08-02-2012 00:00:00 -5.57083 C 72.6528 % -9.69 C
181 09-02-2012 00:00:00 -7.39479 C 86.5868 % -9.24 C
182 10-02-2012 00:00:00 -6.11875 C 75.6354 % -9.71 C
183 11-02-2012 00:00:00 -8.24931 C 70.5451 % -12.64 C
184 12-02-2012 00:00:00 -6.58063 C 72.4466 % -10.7 C
185 13-02-2012 00:00:00 -0.88993 C 82.6458 % -3.46 C
186 14-02-2012 00:00:00 1.59931 C 93.4410 % 0.66 C
187 15-02-2012 00:00:00 3.97674 C 86.0694 % 1.86 C
188 16-02-2012 00:00:00 3.54896 C 91.1875 % 2.25 C
189 17-02-2012 00:00:00 5.57917 C 87.8576 % 3.73 C
190 18-02-2012 00:00:00 6.37083 C 88.0556 % 4.54 C
191 19-02-2012 00:00:00 2.99271 C 87.9861 % 1.2 C
192 20-02-2012 00:00:00 1.18333 C 84.9583 % -1.06 C
193 21-02-2012 00:00:00 1.84583 C 78.4063 % -1.5 C
194 22-02-2012 00:00:00 3.17951 C 81.1493 % 0.27 C
195 23-02-2012 00:00:00 6.17352 C 81.6864 % 3.28 C
196 24-02-2012 00:00:00 9.38101 C 86.6938 % 7.28 C
197 25-02-2012 00:00:00 8.6186 C 80.9439 % 5.54 C
198 26-02-2012 00:00:00 5.29167 C 88.4757 % 3.55 C
199 27-02-2012 00:00:00 5.81944 C 83.3333 % 3.22 C
200 28-02-2012 00:00:00 8.57639 C 85.4861 % 6.28 C
Sensor: Nr:Datum:Temp:Feuchte:Taupunkt:
Aussen-T/F 201 29-02-2012 00:00:00 9.49583 C 92.3403 % 8.32 C
202 01-03-2012 00:00:00 9.01563 C 93.6979 % 8.06 C
203 02-03-2012 00:00:00 8.57986 C 92.6771 % 7.46 C
204 03-03-2012 00:00:00 7.91597 C 90.3438 % 6.43 C
205 04-03-2012 00:00:00 8.65625 C 81.6354 % 5.7 C
206 05-03-2012 00:00:00 5.81597 C 77.6597 % 2.22 C
207 06-03-2012 00:00:00 5.43924 C 73.2222 % 1.04 C
208 07-03-2012 00:00:00 2.91784 C 81.1970 % 0.02 C
209 08-03-2012 00:00:00 5.35833 C 80.5347 % 2.29 C
210 09-03-2012 00:00:00 4.88437 C 78.4410 % 1.46 C
211 10-03-2012 00:00:00 8.58723 C 78.8759 % 5.14 C
212 11-03-2012 00:00:00 9.26151 C 82.9496 % 6.52 C
213 12-03-2012 00:00:00 8.06347 C 86.5240 % 5.96 C
214 13-03-2012 00:00:00 7.68299 C 83.6458 % 5.1 C
215 14-03-2012 00:00:00 6.93542 C 78.8819 % 3.53 C
216 15-03-2012 00:00:00 7.07812 C 79.2431 % 3.73 C
217 16-03-2012 00:00:00 10.0412 C 69.7077 % 4.77 C
218 17-03-2012 00:00:00 9.42917 C 75.0799 % 5.24 C
219 18-03-2012 00:00:00 8.64931 C 83.8368 % 6.07 C
220 19-03-2012 00:00:00 7.34303 C 72.1270 % 2.66 C
221 20-03-2012 00:00:00 6.68807 C 68.1687 % 1.25 C
222 21-03-2012 00:00:00 7.73902 C 69.3206 % 2.49 C
223 22-03-2012 00:00:00 10.04583 C 71.3403 % 5.1 C
224 23-03-2012 00:00:00 11.69132 C 71.9826 % 6.82 C
225 24-03-2012 00:00:00 11.62674 C 70.9132 % 6.54 C
Sensor: Nr:Datum:Temp:Feuchte:Taupunkt:
Aussen-T/F 226 25-03-2012 00:00:00 12.80873 C 62.8291 % 5.91 C
227 26-03-2012 00:00:00 11.16806 C 58.5764 % 3.36 C
228 27-03-2012 00:00:00 11.10694 C 65.9826 % 5 C
229 28-03-2012 00:00:00 11.74201 C 67.7188 % 5.98 C
230 29-03-2012 00:00:00 9.58194 C 71.1354 % 4.62 C
231 30-03-2012 00:00:00 9.39062 C 79.1701 % 5.97 C
232 31-03-2012 00:00:00 7.98706 C 76.3042 % 4.08 C
233 01-04-2012 00:00:00 4.77396 C 63.6736 % -1.51 C
234 02-04-2012 00:00:00 6.69514 C 71.1493 % 1.85 C
235 03-04-2012 00:00:00 11.08125 C 62.9931 % 4.31 C
236 04-04-2012 00:00:00 9.89722 C 82.2743 % 7.02 C
237 05-04-2012 00:00:00 7.74514 C 80.8958 % 4.68 C
238 06-04-2012 00:00:00 7.88292 C 67.6655 % 2.28 C
239 07-04-2012 00:00:00 5.61389 C 72.7882 % 1.13 C
240 08-04-2012 00:00:00 5.19194 C 54.1941 % -3.29 C
241 09-04-2012 00:00:00 7.24583 C 83.3264 % 4.61 C
242 10-04-2012 00:00:00 11.25451 C 77.8646 % 7.54 C
243 11-04-2012 00:00:00 9.71215 C 72.8056 % 5.08 C
244 12-04-2012 00:00:00 6.41736 C 84.4444 % 3.99 C
245 13-04-2012 00:00:00 6.76632 C 81.2847 % 3.79 C
246 14-04-2012 00:00:00 7.83021 C 71.5486 % 3.02 C
247 15-04-2012 00:00:00 8.52361 C 73.9826 % 4.16 C
248 16-04-2012 00:00:00 5.92438 C 63.9835 % -0.36 C
249 17-04-2012 00:00:00 5.90382 C 59.8090 % -1.3 C
250 18-04-2012 00:00:00 8.72674 C 72.5451 % 4.08 C
Sensor: Nr:Datum:Temp:Feuchte:Taupunkt:
Aussen-T/F 251 19-04-2012 00:00:00 8.47422 C 80.8084 % 5.37 C
252 20-04-2012 00:00:00 7.34574 C 84.4529 % 4.9 C
253 21-04-2012 00:00:00 8.16701 C 81.3229 % 5.16 C
254 22-04-2012 00:00:00 7.84306 C 80.2049 % 4.65 C
255 23-04-2012 00:00:00 8.39097 C 79.6389 % 5.08 C
256 24-04-2012 00:00:00 8.89757 C 84.6181 % 6.45 C
257 25-04-2012 00:00:00 10.14167 C 78.2292 % 6.53 C
258 26-04-2012 00:00:00 11.47083 C 79.8958 % 8.13 C
259 27-04-2012 00:00:00 12.5625 C 82.5104 % 9.67 C
260 28-04-2012 00:00:00 18.10903 C 72.5139 % 13.09 C
261 29-04-2012 00:00:00 16.89826 C 73.1979 % 12.07 C
262 30-04-2012 00:00:00 17.93194 C 63.6007 % 10.94 C
263 01-05-2012 00:00:00 17.12465 C 71.7708 % 11.99 C
264 02-05-2012 00:00:00 15.24479 C 86.9549 % 13.09 C
265 03-05-2012 00:00:00 13.43472 C 77.5035 % 9.59 C
266 04-05-2012 00:00:00 14.57083 C 73.6806 % 9.93 C
267 05-05-2012 00:00:00 11.45069 C 92.9271 % 10.35 C
268 06-05-2012 00:00:00 10.57674 C 92.8021 % 9.46 C
269 07-05-2012 00:00:00 10.38681 C 83.5556 % 7.73 C
270 08-05-2012 00:00:00 13.89063 C 73.1215 % 9.16 C
271 09-05-2012 00:00:00 16.78229 C 82.0903 % 13.71 C
272 10-05-2012 00:00:00 19.11111 C 78.7257 % 15.33 C
273 11-05-2012 00:00:00 19.125 C 80.7014 % 15.73 C
274 12-05-2012 00:00:00 11.31289 C 69.8188 % 6.01 C
275 13-05-2012 00:00:00 9.38646 C 66.5382 % 3.48 C
Sensor: Nr:Datum:Temp:Feuchte:Taupunkt:
Aussen-T/F 276 14-05-2012 00:00:00 11.40799 C 62.7778 % 4.57 C
277 15-05-2012 00:00:00 9.5625 C 74.6979 % 5.3 C
278 16-05-2012 00:00:00 8.66597 C 76.0417 % 4.69 C
279 17-05-2012 00:00:00 9.38889 C 67.5799 % 3.7 C
280 18-05-2012 00:00:00 12.68299 C 77.1667 % 8.79 C
281 19-05-2012 00:00:00 15.71389 C 82.6667 % 12.77 C
282 20-05-2012 00:00:00 17.6684 C 78.6076 % 13.91 C
283 21-05-2012 00:00:00 18.52986 C 81.4410 % 15.29 C
284 22-05-2012 00:00:00 21.31944 C 73.3576 % 16.36 C
285 23-05-2012 00:00:00 18.79965 C 89.2743 % 17 C
286 24-05-2012 00:00:00 20.69687 C 73.7639 % 15.85 C
287 25-05-2012 00:00:00 19.45313 C 48.2882 % 8.25 C
288 26-05-2012 00:00:00 18.11007 C 54.3056 % 8.75 C
289 27-05-2012 00:00:00 18.05868 C 62.2743 % 10.74 C
290 28-05-2012 00:00:00 18.93417 C 63.8705 % 11.95 C
291 29-05-2012 00:00:00 18.46288 C 64.9508 % 11.76 C
292 30-05-2012 00:00:00 17.68438 C 78.7569 % 13.95 C
293 31-05-2012 00:00:00 16.03021 C 84.4167 % 13.4 C
294 01-06-2012 00:00:00 15.74271 C 76.1632 % 11.56 C
295 02-06-2012 00:00:00 15.19271 C 70.5938 % 9.89 C
296 03-06-2012 00:00:00 12.60255 C 88.8727 % 10.82 C
297 04-06-2012 00:00:00 13.31389 C 85.8576 % 11 C
298 05-06-2012 00:00:00 12.15312 C 69.0486 % 6.65 C
299 06-06-2012 00:00:00 13.09444 C 86.8056 % 10.95 C
300 07-06-2012 00:00:00 16.45799 C 88.8576 % 14.62 C
Sensor: Nr:Datum:Temp:Feuchte:Taupunkt:
Aussen-T/F 301 08-06-2012 00:00:00 17.34097 C 72.3854 % 12.33 C
302 09-06-2012 00:00:00 14.79028 C 66.1215 % 8.53 C
303 10-06-2012 00:00:00 15.29514 C 66.6736 % 9.14 C
304 11-06-2012 00:00:00 14.57014 C 84.7083 % 12.03 C
305 12-06-2012 00:00:00 14.40729 C 86.0764 % 12.11 C
306 13-06-2012 00:00:00 12.57363 C 92.7692 % 11.44 C
307 14-06-2012 00:00:00 14.15694 C 81.5104 % 11.04 C
308 15-06-2012 00:00:00 16.11806 C 85.0833 % 13.61 C
309 16-06-2012 00:00:00 15.40799 C 92.7326 % 14.24 C
310 17-06-2012 00:00:00 17.28021 C 70.4549 % 11.86 C
311 18-06-2012 00:00:00 18.57292 C 74.0694 % 13.87 C
312 19-06-2012 00:00:00 17.44028 C 82.5590 % 14.44 C
313 20-06-2012 00:00:00 16.35833 C 96.8785 % 15.86 C
314 21-06-2012 00:00:00 18.41354 C 89.4583 % 16.65 C
315 22-06-2012 00:00:00 16.36181 C 75.7083 % 12.07 C
316 23-06-2012 00:00:00 16.63472 C 71.3924 % 11.44 C
317 24-06-2012 00:00:00 14.73507 C 82.4306 % 11.78 C
318 25-06-2012 00:00:00 15.09028 C 78.7917 % 11.44 C
319 26-06-2012 00:00:00 16.43125 C 73.6111 % 11.71 C
320 27-06-2012 00:00:00 18.07569 C 84.8264 % 15.48 C
321 28-06-2012 00:00:00 21.87465 C 80.2743 % 18.32 C
322 29-06-2012 00:00:00 20.49063 C 90.0868 % 18.81 C
323 30-06-2012 00:00:00 20.14965 C 78.6563 % 16.32 C
324 01-07-2012 00:00:00 17.98889 C 81.2882 % 14.74 C
325 02-07-2012 00:00:00 15.24444 C 86.4826 % 13 C
Sensor: Nr:Datum:Temp:Feuchte:Taupunkt:
Aussen-T/F 326 03-07-2012 00:00:00 18.02153 C 76.9132 % 13.91 C
327 04-07-2012 00:00:00 19.87465 C 76.5000 % 15.62 C
328 05-07-2012 00:00:00 19.09722 C 91.7153 % 17.72 C
329 06-07-2012 00:00:00 19.21042 C 82.2708 % 16.11 C
330 07-07-2012 00:00:00 19.57743 C 72.4514 % 14.49 C
331 08-07-2012 00:00:00 17.84097 C 81.3542 % 14.6 C
332 09-07-2012 00:00:00 18.63611 C 72.1944 % 13.53 C
333 10-07-2012 00:00:00 19.1441 C 76.7604 % 14.97 C
334 11-07-2012 00:00:00 16.03394 C 79.6861 % 12.53 C
335 12-07-2012 00:00:00 14.8191 C 77.8715 % 11 C
336 13-07-2012 00:00:00 15.50417 C 89.5694 % 13.8 C
337 14-07-2012 00:00:00 15.27708 C 87.8125 % 13.27 C
338 15-07-2012 00:00:00 14.52014 C 86.8542 % 12.36 C
339 16-07-2012 00:00:00 15.02292 C 79.1840 % 11.45 C
340 17-07-2012 00:00:00 17.55035 C 76.7431 % 13.42 C
341 18-07-2012 00:00:00 19.89649 C 72.5088 % 14.81 C
342 19-07-2012 00:00:00 18.18194 C 70.2743 % 12.68 C
343 20-07-2012 00:00:00 14.85872 C 85.6406 % 12.48 C
344 21-07-2012 00:00:00 15.04167 C 80.6493 % 11.74 C
345 22-07-2012 00:00:00 14.62049 C 74.5139 % 10.15 C
346 23-07-2012 00:00:00 17.15069 C 68.0972 % 11.22 C
347 24-07-2012 00:00:00 19.81701 C 70.4826 % 14.3 C
348 25-07-2012 00:00:00 22.11408 C 72.7218 % 16.99 C
349 26-07-2012 00:00:00 23.10764 C 73.2326 % 18.05 C
350 27-07-2012 00:00:00 22.2566 C 82.8021 % 19.19 C
Sensor: Nr:Datum:Temp:Feuchte:Taupunkt:
Aussen-T/F 351 28-07-2012 00:00:00 19.03507 C 92.5660 % 17.8 C
352 29-07-2012 00:00:00 17.61875 C 75.5799 % 13.26 C
353 30-07-2012 00:00:00 16.17396 C 70.1250 % 10.73 C
354 31-07-2012 00:00:00 16.33993 C 79.2778 % 12.75 C
355 01-08-2012 00:00:00 20.08194 C 75.0521 % 15.52 C
356 02-08-2012 00:00:00 20.75938 C 75.0938 % 16.19 C
357 03-08-2012 00:00:00 19.31771 C 71.6042 % 14.06 C
358 04-08-2012 00:00:00 19.1 C 71.9653 % 13.93 C
359 05-08-2012 00:00:00 19.0875 C 83.3889 % 16.21 C
360 06-08-2012 00:00:00 18.40312 C 78.4965 % 14.6 C
361 07-08-2012 00:00:00 17.15556 C 73.1701 % 12.31 C
362 08-08-2012 00:00:00 16.59132 C 79.3229 % 13 C
363 09-08-2012 00:00:00 18.49479 C 77.0868 % 14.41 C
364 10-08-2012 00:00:00 17.33299 C 71.4028 % 12.11 C
365 11-08-2012 00:00:00 16.29444 C 73.2604 % 11.5 C
366 12-08-2012 00:00:00 17.40486 C 68.6181 % 11.58 C
367 13-08-2012 00:00:00 18.22326 C 73.1944 % 13.35 C
368 14-08-2012 00:00:00 19.78993 C 79.0521 % 16.05 C
369 15-08-2012 00:00:00 22.31354 C 70.9549 % 16.79 C
370 16-08-2012 00:00:00 21.27535 C 67.3125 % 14.97 C
371 17-08-2012 00:00:00 20.12986 C 70.1146 % 14.51 C
372 18-08-2012 00:00:00 23.0066 C 67.4271 % 16.65 C
373 19-08-2012 00:00:00 24.67083 C 69.9722 % 18.82 C
374 20-08-2012 00:00:00 23.43229 C 80.3090 % 19.84 C
375 21-08-2012 00:00:00 22.6875 C 81.6771 % 19.39 C
Sensor: Nr:Datum:Temp:Feuchte:Taupunkt:
Aussen-T/F 376 22-08-2012 00:00:00 20.95729 C 64.6042 % 14.04 C
377 23-08-2012 00:00:00 17.78194 C 65.1285 % 11.15 C
378 24-08-2012 00:00:00 18.62842 C 81.4105 % 15.38 C
379 25-08-2012 00:00:00 18.46493 C 78.6458 % 14.69 C
380 26-08-2012 00:00:00 16.26667 C 78.3021 % 12.49 C
381 27-08-2012 00:00:00 16.32049 C 79.0486 % 12.68 C
382 28-08-2012 00:00:00 18.03507 C 74.6076 % 13.46 C
383 29-08-2012 00:00:00 20.02396 C 77.5486 % 15.98 C
384 30-08-2012 00:00:00 17.48889 C 81.0208 % 14.2 C
385 31-08-2012 00:00:00 13.93646 C 84.9132 % 11.44 C
386 01-09-2012 00:00:00 14.49236 C 76.3785 % 10.39 C
387 02-09-2012 00:00:00 13.96285 C 82.2604 % 10.99 C
388 03-09-2012 00:00:00 16.22222 C 79.7535 % 12.72 C
389 04-09-2012 00:00:00 16.86098 C 82.0105 % 13.77 C
390 05-09-2012 00:00:00 16.4125 C 79.7500 % 12.91 C
391 06-09-2012 00:00:00 14.63604 C 70.9187 % 9.42 C
392 07-09-2012 00:00:00 14.4309 C 73.8368 % 9.83 C
393 08-09-2012 00:00:00 16.83403 C 70.1076 % 11.36 C
394 09-09-2012 00:00:00 18.54722 C 68.1563 % 12.57 C
395 10-09-2012 00:00:00 19.67847 C 67.2465 % 13.44 C
396 11-09-2012 00:00:00 17.74028 C 83.6910 % 14.95 C
397 12-09-2012 00:00:00 11.13646 C 93.3750 % 10.11 C
398 13-09-2012 00:00:00 10.78611 C 90.3368 % 9.27 C
399 14-09-2012 00:00:00 13.01424 C 83.7639 % 10.33 C
400 15-09-2012 00:00:00 13.44514 C 88.4410 % 11.57 C
Sensor: Nr:Datum:Temp:Feuchte:Taupunkt:
Aussen-T/F 401 16-09-2012 00:00:00 13.24236 C 85.5903 % 10.88 C
402 17-09-2012 00:00:00 15.15729 C 83.0208 % 12.3 C
403 18-09-2012 00:00:00 14.10868 C 84.2188 % 11.49 C
404 19-09-2012 00:00:00 11.7684 C 70.2292 % 6.53 C
405 20-09-2012 00:00:00 9.9566 C 72.9271 % 5.33 C
406 21-09-2012 00:00:00 10.62118 C 79.5069 % 7.23 C
407 22-09-2012 00:00:00 11.53611 C 80.2917 % 8.26 C
408 23-09-2012 00:00:00 11.58819 C 78.6007 % 8 C
409 24-09-2012 00:00:00 14.89201 C 84.5486 % 12.31 C
410 25-09-2012 00:00:00 12.86597 C 88.1563 % 10.96 C
411 26-09-2012 00:00:00 12.27917 C 95.0382 % 11.51 C
412 27-09-2012 00:00:00 12.68611 C 88.7257 % 10.88 C
413 28-09-2012 00:00:00 12.56701 C 85.9757 % 10.29 C
414 29-09-2012 00:00:00 11.68819 C 84.0382 % 9.08 C
415 30-09-2012 00:00:00 9.30035 C 89.3681 % 7.64 C
416 01-10-2012 00:00:00 9.46319 C 85.2118 % 7.11 C
417 02-10-2012 00:00:00 12.25764 C 84.6736 % 9.75 C
418 03-10-2012 00:00:00 14.55312 C 82.0139 % 11.52 C
419 04-10-2012 00:00:00 12.89722 C 83.2569 % 10.13 C
420 05-10-2012 00:00:00 13.57986 C 85.1285 % 11.13 C
421 06-10-2012 00:00:00 14.99065 C 84.0244 % 12.32 C
422 07-10-2012 00:00:00 10.63669 C 85.8058 % 8.36 C
423 08-10-2012 00:00:00 8.1958 C 91.4790 % 6.89 C
424 09-10-2012 00:00:00 10.60348 C 82.4776 % 7.75 C
425 10-10-2012 00:00:00 6.21146 C 91.4826 % 4.93 C
Sensor: Nr:Datum:Temp:Feuchte:Taupunkt:
Aussen-T/F 426 11-10-2012 00:00:00 6.67361 C 92.2431 % 5.51 C
427 12-10-2012 00:00:00 10.79653 C 89.9479 % 9.22 C
428 13-10-2012 00:00:00 9.08472 C 85.8854 % 6.85 C
429 14-10-2012 00:00:00 8.15833 C 90.5868 % 6.71 C
430 15-10-2012 00:00:00 7.43264 C 92.8646 % 6.36 C
431 16-10-2012 00:00:00 7.85556 C 89.7188 % 6.27 C
432 17-10-2012 00:00:00 10.85972 C 90.2361 % 9.33 C
433 18-10-2012 00:00:00 14.37569 C 85.3924 % 11.96 C
434 19-10-2012 00:00:00 14.37187 C 89.1111 % 12.6 C
435 20-10-2012 00:00:00 13.74722 C 92.9722 % 12.63 C
436 21-10-2012 00:00:00 13.32917 C 93.7014 % 12.34 C
437 22-10-2012 00:00:00 11.79062 C 93.9931 % 10.86 C
438 23-10-2012 00:00:00 11.38403 C 87.8194 % 9.44 C
439 24-10-2012 00:00:00 9.71528 C 91.8819 % 8.46 C
440 25-10-2012 00:00:00 9.9441 C 92.9271 % 8.85 C
441 26-10-2012 00:00:00 6.73542 C 93.3472 % 5.74 C
442 27-10-2012 00:00:00 2.98993 C 78.3160 % -0.41 C
443 28-10-2012 00:00:00 0.51181 C 90.1007 % -0.92 C
444 29-10-2012 00:00:00 0.69306 C 92.2292 % -0.42 C
445 30-10-2012 00:00:00 6.0566 C 90.8507 % 4.68 C
446 31-10-2012 00:00:00 5.97118 C 91.2778 % 4.66 C
447 01-11-2012 00:00:00 7.64965 C 85.8819 % 5.44 C
448 02-11-2012 00:00:00 7.75417 C 81.4132 % 4.78 C
449 03-11-2012 00:00:00 7.38542 C 94.0104 % 6.49 C
450 04-11-2012 00:00:00 7.74028 C 92.3472 % 6.58 C
Sensor: Nr:Datum:Temp:Feuchte:Taupunkt:
Aussen-T/F 451 05-11-2012 00:00:00 8.00382 C 84.4444 % 5.55 C
452 06-11-2012 00:00:00 6.03264 C 87.7708 % 4.16 C
453 07-11-2012 00:00:00 8.52535 C 86.8021 % 6.46 C
454 08-11-2012 00:00:00 8.82222 C 80.7188 % 5.7 C
455 09-11-2012 00:00:00 8.19861 C 83.9444 % 5.65 C
456 10-11-2012 00:00:00 8.89201 C 93.0243 % 7.83 C
457 11-11-2012 00:00:00 8.24097 C 92.3333 % 7.07 C
458 12-11-2012 00:00:00 5.70868 C 88.6701 % 3.99 C
459 13-11-2012 00:00:00 3.26076 C 94.2639 % 2.43 C
460 14-11-2012 00:00:00 2.60312 C 94.3438 % 1.79 C
461 15-11-2012 00:00:00 4.53958 C 88.2361 % 2.77 C
462 16-11-2012 00:00:00 3.22222 C 87.5313 % 1.36 C
463 17-11-2012 00:00:00 4.33472 C 93.4931 % 3.38 C
464 18-11-2012 00:00:00 7.54896 C 95.9792 % 6.95 C
465 19-11-2012 00:00:00 7.68403 C 95.0035 % 6.94 C
466 20-11-2012 00:00:00 5.27188 C 93.6215 % 4.33 C
467 21-11-2012 00:00:00 4.38681 C 91.7778 % 3.17 C
468 22-11-2012 00:00:00 5.51111 C 94.8819 % 4.76 C
469 23-11-2012 00:00:00 6.88472 C 93.0660 % 5.84 C
470 24-11-2012 00:00:00 9.16042 C 89.4167 % 7.51 C
471 25-11-2012 00:00:00 10.6066 C 72.8889 % 5.95 C
472 26-11-2012 00:00:00 6.01493 C 95.3368 % 5.33 C
473 27-11-2012 00:00:00 7.67986 C 89.1875 % 6.02 C
474 28-11-2012 00:00:00 5.5184 C 91.1563 % 4.19 C
475 29-11-2012 00:00:00 4.01319 C 86.8021 % 2.02 C
Sensor: Nr:Datum:Temp:Feuchte:Taupunkt:
Aussen-T/F 476 30-11-2012 00:00:00 1.44375 C 93.9375 % 0.58 C
477 01-12-2012 00:00:00 -0.39861 C 93.9271 % -1.25 C
478 02-12-2012 00:00:00 2.39375 C 89.5035 % 0.85 C
479 03-12-2012 00:00:00 2.27222 C 89.5486 % 0.74 C
480 04-12-2012 00:00:00 3.75312 C 89.4653 % 2.18 C
481 05-12-2012 00:00:00 2.86667 C 90.6389 % 1.49 C
482 06-12-2012 00:00:00 0.5625 C 84.7813 % -1.7 C
483 07-12-2012 00:00:00 -1.00382 C 91.2500 % -2.25 C
484 08-12-2012 00:00:00 -4.66111 C 93.4826 % -5.55 C
485 09-12-2012 00:00:00 0.22326 C 90.9479 % -1.08 C
486 10-12-2012 00:00:00 2.70764 C 86.9965 % 0.77 C
487 11-12-2012 00:00:00 -0.72396 C 86.9514 % -2.62 C
488 12-12-2012 00:00:00 -3.40937 C 85.1563 % -5.54 C
489 13-12-2012 00:00:00 -3.53646 C 88.4896 % -5.16 C
490 14-12-2012 00:00:00 2.76076 C 92.6389 % 1.69 C
491 15-12-2012 00:00:00 6.97153 C 92.2500 % 5.8 C
492 16-12-2012 00:00:00 6.60868 C 91.0278 % 5.25 C
493 17-12-2012 00:00:00 6.04792 C 93.6910 % 5.11 C
494 18-12-2012 00:00:00 5.04583 C 93.1146 % 4.03 C
495 19-12-2012 00:00:00 3.47361 C 96.2708 % 2.94 C
496 20-12-2012 00:00:00 1.32396 C 93.7708 % 0.43 C
497 21-12-2012 00:00:00 3.19236 C 97.7708 % 2.87 C
498 22-12-2012 00:00:00 6.1691 C 95.2361 % 5.47 C
499 23-12-2012 00:00:00 11.85 C 90.7014 % 10.38 C
500 24-12-2012 00:00:00 11.08715 C 83.9306 % 8.48 C
Sensor: Nr:Datum:Temp:Feuchte:Taupunkt:
Aussen-T/F 501 25-12-2012 00:00:00 9.61181 C 81.7431 % 6.65 C
502 26-12-2012 00:00:00 8.15278 C 84.2465 % 5.66 C
503 27-12-2012 00:00:00 7.84757 C 87.0868 % 5.84 C
504 28-12-2012 00:00:00 6.19479 C 93.6806 % 5.25 C
505 29-12-2012 00:00:00 8.19931 C 92.4514 % 7.05 C
506 30-12-2012 00:00:00 8.44618 C 76.8021 % 4.62 C
507 31-12-2012 00:00:00 8.92569 C 76.6319 % 5.05 C
508 01-01-2013 00:00:00 6.59132 C 85.2465 % 4.3 C
509 02-01-2013 00:00:00 4.69861 C 86.2326 % 2.6 C
510 03-01-2013 00:00:00 7.62951 C 90.5069 % 6.18 C
511 04-01-2013 00:00:00 9.87292 C 91.9063 % 8.62 C
512 05-01-2013 00:00:00 7.8816 C 90.6528 % 6.45 C
513 06-01-2013 00:00:00 8.15069 C 89.3438 % 6.51 C
514 07-01-2013 00:00:00 7.30764 C 88.5938 % 5.55 C
515 08-01-2013 00:00:00 6.15417 C 86.4549 % 4.07 C
516 09-01-2013 00:00:00 4.72465 C 87.9271 % 2.9 C
517 10-01-2013 00:00:00 4.44028 C 90.6840 % 3.05 C
518 11-01-2013 00:00:00 1.09201 C 80.8958 % -1.81 C
519 12-01-2013 00:00:00 -2.64514 C 86.8611 % -4.53 C
520 13-01-2013 00:00:00 -3.28368 C 83.3715 % -5.69 C
521 14-01-2013 00:00:00 -4.44028 C 89.7431 % -5.87 C
522 15-01-2013 00:00:00 -2.1941 C 89.2222 % -3.72 C
523 16-01-2013 00:00:00 -2.65521 C 90.0208 % -4.06 C
524 17-01-2013 00:00:00 -2.48542 C 88.3472 % -4.14 C
525 18-01-2013 00:00:00 -1.70729 C 86.0417 % -3.73 C
Sensor: Nr:Datum:Temp:Feuchte:Taupunkt:
Aussen-T/F 526 19-01-2013 00:00:00 -2.39375 C 81.1181 % -5.18 C
527 20-01-2013 00:00:00 -3.06146 C 87.3229 % -4.87 C
528 21-01-2013 00:00:00 -0.75938 C 92.5590 % -1.81 C
529 22-01-2013 00:00:00 -1.20382 C 91.8194 % -2.36 C
530 23-01-2013 00:00:00 -1.0566 C 91.6736 % -2.24 C
531 24-01-2013 00:00:00 -2.40833 C 86.2639 % -4.38 C
532 25-01-2013 00:00:00 -2.18368 C 84.2292 % -4.48 C
533 26-01-2013 00:00:00 -1.99549 C 84.4306 % -4.26 C
534 27-01-2013 00:00:00 2.22882 C 88.1528 % 0.48 C
535 28-01-2013 00:00:00 3.96389 C 87.7361 % 2.12 C
536 29-01-2013 00:00:00 9.00868 C 87.2743 % 7.01 C
537 30-01-2013 00:00:00 11.32361 C 82.5660 % 8.47 C
538 31-01-2013 00:00:00 7.765 C 75.5864 % 3.73 C
539 01-02-2013 00:00:00 6.26378 C 91.9921 % 5.06 C
540 02-02-2013 00:00:00 3.24097 C 87.7743 % 1.41 C
541 03-02-2013 00:00:00 3.41458 C 84.2292 % 1.01 C
542 04-02-2013 00:00:00 5.84792 C 89.4167 % 4.24 C
543 05-02-2013 00:00:00 4.44583 C 78.9896 % 1.13 C
544 06-02-2013 00:00:00 1.58819 C 91.4306 % 0.35 C
545 07-02-2013 00:00:00 1.88576 C 90.5625 % 0.51 C
546 08-02-2013 00:00:00 0.56424 C 91.6042 % -0.64 C
547 09-02-2013 00:00:00 -0.7941 C 88.5694 % -2.44 C
548 10-02-2013 00:00:00 -1.98681 C 82.7569 % -4.52 C
549 11-02-2013 00:00:00 -0.9316 C 70.8750 % -5.54 C
550 12-02-2013 00:00:00 -0.84618 C 72.2569 % -5.2 C
Sensor: Nr:Datum:Temp:Feuchte:Taupunkt:
Aussen-T/F 551 13-02-2013 00:00:00 -0.98125 C 73.6458 % -5.08 C
552 14-02-2013 00:00:00 -2.40382 C 83.6806 % -4.78 C
553 15-02-2013 00:00:00 0.91806 C 93.3993 % -0.02 C
554 16-02-2013 00:00:00 2.92847 C 95.7014 % 2.31 C
555 17-02-2013 00:00:00 2.97465 C 92.8229 % 1.93 C
556 18-02-2013 00:00:00 0.52847 C 89.7049 % -0.96 C
557 19-02-2013 00:00:00 0.79306 C 91.9375 % -0.36 C
558 20-02-2013 00:00:00 0.4316 C 79.5799 % -2.68 C
559 21-02-2013 00:00:00 -1.21979 C 76.7188 % -4.77 C
560 22-02-2013 00:00:00 -2.3066 C 72.8819 % -6.5 C
561 23-02-2013 00:00:00 -2.80139 C 85.8924 % -4.83 C
562 24-02-2013 00:00:00 -0.43958 C 90.7604 % -1.76 C
563 25-02-2013 00:00:00 0.88785 C 95.9375 % 0.32 C
564 26-02-2013 00:00:00 2.31215 C 94.4792 % 1.52 C
565 27-02-2013 00:00:00 1.69271 C 89.6667 % 0.18 C
566 28-02-2013 00:00:00 2.41771 C 88.3368 % 0.69 C
567 01-03-2013 00:00:00 2.75278 C 82.7014 % 0.11 C
568 02-03-2013 00:00:00 2.60208 C 75.2674 % -1.32 C
569 03-03-2013 00:00:00 1.90104 C 84.2535 % -0.47 C
570 04-03-2013 00:00:00 1.8934 C 82.4444 % -0.77 C
571 05-03-2013 00:00:00 2.56979 C 83.8611 % 0.12 C
572 06-03-2013 00:00:00 5.45035 C 78.0139 % 1.93 C
573 07-03-2013 00:00:00 8.96146 C 79.3646 % 5.59 C
574 08-03-2013 00:00:00 10.92049 C 83.9063 % 8.31 C
575 09-03-2013 00:00:00 10.42118 C 84.5660 % 7.94 C
Sensor: Nr:Datum:Temp:Feuchte:Taupunkt:
Aussen-T/F 576 10-03-2013 00:00:00 3.88611 C 90.5799 % 2.49 C
577 11-03-2013 00:00:00 -0.5191 C 89.0764 % -2.09 C
578 12-03-2013 00:00:00 -2.72153 C 90.2674 % -4.09 C
579 13-03-2013 00:00:00 -2.95907 C 81.1566 % -5.73 C
580 14-03-2013 00:00:00 -1.88944 C 86.0493 % -3.91 C
581 15-03-2013 00:00:00 -2.50139 C 79.4063 % -5.57 C
582 16-03-2013 00:00:00 2.40938 C 66.0729 % -3.26 C
583 17-03-2013 00:00:00 3.22014 C 86.2431 % 1.15 C
584 18-03-2013 00:00:00 4.14479 C 82.4410 % 1.43 C
585 19-03-2013 00:00:00 4.10313 C 82.7500 % 1.44 C
586 20-03-2013 00:00:00 3.59201 C 90.7639 % 2.23 C
587 21-03-2013 00:00:00 1.33993 C 86.7153 % -0.62 C
588 22-03-2013 00:00:00 1.7441 C 78.1840 % -1.64 C
589 23-03-2013 00:00:00 1.46875 C 67.2951 % -3.92 C
590 24-03-2013 00:00:00 0.48854 C 50.8924 % -8.48 C
591 25-03-2013 00:00:00 0.18681 C 56.3854 % -7.45 C
592 26-03-2013 00:00:00 0.3309 C 54.9167 % -7.65 C
593 27-03-2013 00:00:00 1.19896 C 57.4340 % -6.26 C
594 28-03-2013 00:00:00 2.07639 C 68.6563 % -3.07 C
595 29-03-2013 00:00:00 0.53715 C 86.8750 % -1.39 C
596 30-03-2013 00:00:00 1.50903 C 75.2361 % -2.39 C
597 31-03-2013 00:00:00 1.17246 C 77.9094 % -2.24 C
598 01-04-2013 00:00:00 1.44201 C 69.0382 % -3.6 C
599 02-04-2013 00:00:00 2.12708 C 62.2396 % -4.33 C
600 03-04-2013 00:00:00 1.88194 C 70.0521 % -2.99 C
Sensor: Nr:Datum:Temp:Feuchte:Taupunkt:
Aussen-T/F 601 04-04-2013 00:00:00 3.97465 C 65.6701 % -1.85 C
602 05-04-2013 00:00:00 2.45382 C 75.3299 % -1.46 C
603 06-04-2013 00:00:00 3.55104 C 83.4028 % 1.01 C
604 07-04-2013 00:00:00 3.40382 C 71.6181 % -1.23 C
605 08-04-2013 00:00:00 4.46979 C 71.6076 % -0.2 C
606 09-04-2013 00:00:00 5.89479 C 88.8681 % 4.2 C
607 10-04-2013 00:00:00 8.34653 C 86.5139 % 6.23 C
608 11-04-2013 00:00:00 12.25972 C 76.2674 % 8.21 C
609 12-04-2013 00:00:00 10.42708 C 83.9722 % 7.84 C
610 13-04-2013 00:00:00 11.30243 C 70.4826 % 6.14 C
611 14-04-2013 00:00:00 15.49271 C 69.5903 % 9.96 C
612 15-04-2013 00:00:00 15.52118 C 73.4931 % 10.81 C
613 16-04-2013 00:00:00 16.01215 C 73.3854 % 11.26 C
614 17-04-2013 00:00:00 17.14167 C 64.9028 % 10.49 C
615 18-04-2013 00:00:00 15.57153 C 62.1528 % 8.36 C
616 19-04-2013 00:00:00 11.46389 C 56.8333 % 3.21 C
617 20-04-2013 00:00:00 10.16944 C 61.6736 % 3.15 C
618 21-04-2013 00:00:00 10.71389 C 59.7014 % 3.21 C
619 22-04-2013 00:00:00 12.26562 C 60.0069 % 4.74 C
620 23-04-2013 00:00:00 12.48924 C 62.8681 % 5.62 C
621 24-04-2013 00:00:00 14.60278 C 69.3472 % 9.06 C
622 25-04-2013 00:00:00 17.28958 C 64.4965 % 10.54 C
623 26-04-2013 00:00:00 12.59896 C 84.6528 % 10.09 C
624 27-04-2013 00:00:00 6.70972 C 88.6111 % 4.97 C
625 28-04-2013 00:00:00 7.57118 C 83.3438 % 4.93 C
Sensor: Nr:Datum:Temp:Feuchte:Taupunkt:
Aussen-T/F 626 29-04-2013 00:00:00 11.20139 C 67.0556 % 5.32 C
627 30-04-2013 00:00:00 9.40104 C 78.5139 % 5.86 C
628 01-05-2013 00:00:00 12.25 C 80.0972 % 8.92 C
629 02-05-2013 00:00:00 15.26458 C 71.7535 % 10.2 C
630 03-05-2013 00:00:00 14.28056 C 76.8472 % 10.28 C
631 04-05-2013 00:00:00 15.30521 C 68.4132 % 9.53 C
632 05-05-2013 00:00:00 14.71458 C 67.0556 % 8.67 C
633 06-05-2013 00:00:00 15.4691 C 70.1458 % 10.06 C
634 07-05-2013 00:00:00 14.47708 C 86.2465 % 12.21 C
635 08-05-2013 00:00:00 15.69062 C 80.7188 % 12.39 C
636 09-05-2013 00:00:00 16.1566 C 79.2674 % 12.57 C
637 10-05-2013 00:00:00 13.28785 C 70.3924 % 8.02 C
638 11-05-2013 00:00:00 12.72431 C 79.9549 % 9.36 C
639 12-05-2013 00:00:00 9.44583 C 87.2049 % 7.43 C
640 13-05-2013 00:00:00 11.19688 C 87.3056 % 9.17 C
641 14-05-2013 00:00:00 12.63125 C 81.3576 % 9.53 C
642 15-05-2013 00:00:00 13.05694 C 84.4688 % 10.5 C
643 16-05-2013 00:00:00 13.25521 C 93.0174 % 12.15 C
644 17-05-2013 00:00:00 10.33125 C 94.0278 % 9.41 C
645 18-05-2013 00:00:00 13.12118 C 83.2813 % 10.35 C
646 19-05-2013 00:00:00 13.29792 C 84.1910 % 10.69 C
647 20-05-2013 00:00:00 10.92014 C 91.6771 % 9.62 C
648 21-05-2013 00:00:00 12.35104 C 85.9826 % 10.08 C
649 22-05-2013 00:00:00 9.34444 C 87.3438 % 7.35 C
650 23-05-2013 00:00:00 7.90764 C 85.7535 % 5.67 C
Sensor: Nr:Datum:Temp:Feuchte:Taupunkt:
Aussen-T/F 651 24-05-2013 00:00:00 7.60521 C 78.8576 % 4.18 C
652 25-05-2013 00:00:00 8.39687 C 79.6493 % 5.09 C
653 26-05-2013 00:00:00 8.03611 C 93.6493 % 7.08 C
654 27-05-2013 00:00:00 12.39201 C 76.8368 % 8.45 C
655 28-05-2013 00:00:00 13.87465 C 75.0903 % 9.54 C
656 29-05-2013 00:00:00 10.21285 C 92.6875 % 9.08 C
657 30-05-2013 00:00:00 11.70208 C 80.4896 % 8.46 C
658 31-05-2013 00:00:00 13.19792 C 90.3090 % 11.65 C
659 01-06-2013 00:00:00 12.09549 C 87.9410 % 10.16 C
660 02-06-2013 00:00:00 13.08125 C 66.3472 % 6.96 C
661 03-06-2013 00:00:00 12.7375 C 64.3750 % 6.19 C
662 04-06-2013 00:00:00 13.85833 C 72.3507 % 8.97 C
663 05-06-2013 00:00:00 16.28889 C 78.3125 % 12.51 C
664 06-06-2013 00:00:00 18.00868 C 68.3264 % 12.09 C
665 07-06-2013 00:00:00 18.14826 C 71.4236 % 12.9 C
666 08-06-2013 00:00:00 18.53125 C 79.0556 % 14.83 C
667 09-06-2013 00:00:00 15.18819 C 89.5868 % 13.49 C
668 10-06-2013 00:00:00 12.77396 C 94.5868 % 11.93 C
669 11-06-2013 00:00:00 15.40451 C 84.7708 % 12.86 C
670 12-06-2013 00:00:00 17.48576 C 83.4236 % 14.65 C
671 13-06-2013 00:00:00 18.45313 C 85.0625 % 15.9 C
672 14-06-2013 00:00:00 14.47917 C 78.2500 % 10.74 C
673 15-06-2013 00:00:00 15.22674 C 77.9653 % 11.41 C
674 16-06-2013 00:00:00 16.60104 C 70.9306 % 11.31 C
675 17-06-2013 00:00:00 20.99236 C 73.9583 % 16.17 C
Sensor: Nr:Datum:Temp:Feuchte:Taupunkt:
Aussen-T/F 676 18-06-2013 00:00:00 23.88576 C 78.5104 % 19.92 C
677 19-06-2013 00:00:00 24.9691 C 80.3924 % 21.36 C
678 20-06-2013 00:00:00 21.63299 C 83.6493 % 18.74 C
679 21-06-2013 00:00:00 17.72778 C 79.6563 % 14.17 C
680 22-06-2013 00:00:00 18.08576 C 74.9688 % 13.58 C
681 23-06-2013 00:00:00 16.03403 C 77.5938 % 12.12 C
682 24-06-2013 00:00:00 14.4184 C 80.7326 % 11.15 C
683 25-06-2013 00:00:00 13.24861 C 81.2049 % 10.1 C
684 26-06-2013 00:00:00 12.21597 C 78.8819 % 8.66 C
685 27-06-2013 00:00:00 12.77257 C 85.6111 % 10.42 C
686 28-06-2013 00:00:00 12.51979 C 89.5764 % 10.85 C
687 29-06-2013 00:00:00 15.31319 C 83.5000 % 12.54 C
688 30-06-2013 00:00:00 14.36458 C 77.9931 % 10.58 C
689 01-07-2013 00:00:00 18.46319 C 74.8715 % 13.93 C
690 02-07-2013 00:00:00 18.88542 C 76.4132 % 14.65 C
691 03-07-2013 00:00:00 17.18993 C 93.0868 % 16.06 C
692 04-07-2013 00:00:00 18.03542 C 87.4410 % 15.92 C
693 05-07-2013 00:00:00 19.17361 C 80.8785 % 15.81 C
694 06-07-2013 00:00:00 19.30833 C 81.3438 % 16.03 C
695 07-07-2013 00:00:00 20.55243 C 74.5069 % 15.86 C
696 08-07-2013 00:00:00 20.53924 C 71.9444 % 15.31 C
697 09-07-2013 00:00:00 20.80694 C 73.6597 % 15.93 C
698 10-07-2013 00:00:00 20.12292 C 72.3368 % 14.99 C
699 11-07-2013 00:00:00 17.10417 C 69.4097 % 11.47 C
700 12-07-2013 00:00:00 16.90868 C 73.6806 % 12.18 C
Sensor: Nr:Datum:Temp:Feuchte:Taupunkt:
Aussen-T/F 701 13-07-2013 00:00:00 17.26424 C 74.3160 % 12.66 C
702 14-07-2013 00:00:00 18.30139 C 74.2847 % 13.65 C
703 15-07-2013 00:00:00 18.85486 C 75.3333 % 14.4 C
704 16-07-2013 00:00:00 20.18438 C 72.0590 % 14.99 C
705 17-07-2013 00:00:00 20.29896 C 74.5729 % 15.63 C
706 18-07-2013 00:00:00 21.84757 C 69.7014 % 16.06 C
707 19-07-2013 00:00:00 22.12674 C 67.1042 % 15.74 C
708 20-07-2013 00:00:00 21.31076 C 69.5417 % 15.52 C
709 21-07-2013 00:00:00 22.30521 C 69.0000 % 16.34 C
710 22-07-2013 00:00:00 22.41562 C 70.3958 % 16.76 C
711 23-07-2013 00:00:00 21.37396 C 86.5069 % 19.03 C
712 24-07-2013 00:00:00 21.35972 C 80.1076 % 17.79 C
713 25-07-2013 00:00:00 20.88542 C 86.3472 % 18.52 C
714 26-07-2013 00:00:00 21.25729 C 95.1007 % 20.44 C
715 27-07-2013 00:00:00 23.54236 C 84.8646 % 20.85 C
716 28-07-2013 00:00:00 21.69965 C 82.3889 % 18.57 C
717 29-07-2013 00:00:00 19.41007 C 88.3993 % 17.44 C
718 30-07-2013 00:00:00 18.99028 C 79.0139 % 15.27 C
719 31-07-2013 00:00:00 20.83715 C 75.4653 % 16.34 C
720 01-08-2013 00:00:00 21.89653 C 75.0764 % 17.28 C
721 02-08-2013 00:00:00 23.37049 C 72.4132 % 18.13 C
722 03-08-2013 00:00:00 21.1934 C 85.6146 % 18.69 C
723 04-08-2013 00:00:00 19.79549 C 78.0382 % 15.86 C
724 05-08-2013 00:00:00 20.42639 C 78.9618 % 16.65 C
725 06-08-2013 00:00:00 19.98646 C 87.9132 % 17.92 C
Sensor: Nr:Datum:Temp:Feuchte:Taupunkt:
Aussen-T/F 726 07-08-2013 00:00:00 18.91562 C 91.5833 % 17.51 C
727 08-08-2013 00:00:00 16.92118 C 86.3229 % 14.62 C
728 09-08-2013 00:00:00 16.41597 C 86.1181 % 14.09 C
729 10-08-2013 00:00:00 18.10764 C 74.2986 % 13.46 C
730 11-08-2013 00:00:00 16.80278 C 69.1771 % 11.13 C
731 12-08-2013 00:00:00 15.88229 C 83.6007 % 13.11 C
732 13-08-2013 00:00:00 15.61319 C 81.7326 % 12.5 C
733 14-08-2013 00:00:00 14.4559 C 81.5660 % 11.34 C
734 15-08-2013 00:00:00 16.30035 C 77.9028 % 12.44 C
735 16-08-2013 00:00:00 17.96319 C 75.3750 % 13.55 C
736 17-08-2013 00:00:00 20.47965 C 70.5158 % 14.94 C
737 18-08-2013 00:00:00 19.29614 C 82.4596 % 16.23 C
738 19-08-2013 00:00:00 17.75764 C 80.2465 % 14.31 C
739 20-08-2013 00:00:00 14.96458 C 79.6111 % 11.47 C
740 21-08-2013 00:00:00 15.16285 C 81.7743 % 12.07 C
741 22-08-2013 00:00:00 16.33576 C 83.6111 % 13.56 C
742 23-08-2013 00:00:00 18.61667 C 76.7708 % 14.46 C
743 24-08-2013 00:00:00 16.10208 C 89.7396 % 14.42 C
744 25-08-2013 00:00:00 16.06806 C 95.2708 % 15.31 C
745 26-08-2013 00:00:00 15.16806 C 96.5451 % 14.62 C
746 27-08-2013 00:00:00 15.88472 C 89.9792 % 14.24 C
747 28-08-2013 00:00:00 15.65312 C 87.5035 % 13.59 C
748 29-08-2013 00:00:00 14.74062 C 90.2153 % 13.15 C
749 30-08-2013 00:00:00 15.73924 C 87.8472 % 13.73 C
750 31-08-2013 00:00:00 16.33229 C 86.2986 % 14.04 C
Sensor: Nr:Datum:Temp:Feuchte:Taupunkt:
Aussen-T/F 751 01-09-2013 00:00:00 14.50938 C 73.5035 % 9.83 C
752 02-09-2013 00:00:00 17.48924 C 69.9375 % 11.95 C
753 03-09-2013 00:00:00 18.08299 C 80.6319 % 14.7 C
754 04-09-2013 00:00:00 17.74583 C 85.1701 % 15.22 C
755 05-09-2013 00:00:00 18.47349 C 84.5181 % 15.82 C
756 06-09-2013 00:00:00 22.68615 C 74.2769 % 17.87 C
757 07-09-2013 00:00:00 18.36354 C 91.5208 % 16.96 C
758 08-09-2013 00:00:00 14.78542 C 93.9097 % 13.81 C
759 09-09-2013 00:00:00 14.16944 C 86.9965 % 12.04 C
760 10-09-2013 00:00:00 13.35073 C 82.4891 % 10.43 C
761 11-09-2013 00:00:00 13.00912 C 87.8066 % 11.04 C
762 12-09-2013 00:00:00 13.53472 C 92.7535 % 12.39 C
763 13-09-2013 00:00:00 14.67363 C 88.3553 % 12.77 C
764 14-09-2013 00:00:00 15.8191 C 93.1007 % 14.71 C
765 15-09-2013 00:00:00 14.41667 C 87.2500 % 12.33 C
766 16-09-2013 00:00:00 13.23333 C 81.3229 % 10.11 C
767 17-09-2013 00:00:00 10.58958 C 82.5833 % 7.75 C
768 18-09-2013 00:00:00 12.57951 C 92.8750 % 11.46 C
769 19-09-2013 00:00:00 11.89444 C 86.6076 % 9.73 C
770 20-09-2013 00:00:00 13.91806 C 85.7778 % 11.58 C
771 21-09-2013 00:00:00 12.20868 C 91.0000 % 10.78 C
772 22-09-2013 00:00:00 13.3788 C 90.7668 % 11.9 C
773 23-09-2013 00:00:00 15.46493 C 89.1076 % 13.68 C
774 24-09-2013 00:00:00 12.34792 C 94.6979 % 11.52 C
775 25-09-2013 00:00:00 14.08646 C 94.5347 % 13.22 C
Sensor: Nr:Datum:Temp:Feuchte:Taupunkt:
Aussen-T/F 776 26-09-2013 00:00:00 14.58924 C 91.1389 % 13.16 C
777 27-09-2013 00:00:00 11.25312 C 89.0660 % 9.52 C
778 28-09-2013 00:00:00 10.575 C 88.4286 % 8.74 C
779 29-09-2013 00:00:00 11.89028 C 85.1667 % 9.48 C
780 30-09-2013 00:00:00 9.80833 C 87.1910 % 7.78 C
781 01-10-2013 00:00:00 11.38264 C 80.5903 % 8.17 C
782 02-10-2013 00:00:00 9.01493 C 82.1111 % 6.13 C
783 03-10-2013 00:00:00 8.84479 C 80.9549 % 5.76 C
784 04-10-2013 00:00:00 11.33993 C 91.6215 % 10.03 C
785 05-10-2013 00:00:00 12.69583 C 97.5486 % 12.32 C
786 06-10-2013 00:00:00 13.60313 C 92.6910 % 12.44 C
787 07-10-2013 00:00:00 13.21667 C 94.6806 % 12.38 C
788 08-10-2013 00:00:00 13.44791 C 95.3505 % 12.72 C
789 09-10-2013 00:00:00 13.86667 C 91.5938 % 12.52 C
790 10-10-2013 00:00:00 8.4625 C 94.6285 % 7.65 C
791 11-10-2013 00:00:00 6.86042 C 97.1285 % 6.44 C
792 12-10-2013 00:00:00 6.31215 C 95.1910 % 5.6 C
793 13-10-2013 00:00:00 7.69167 C 90.0208 % 6.16 C
794 14-10-2013 00:00:00 9.89091 C 92.2182 % 8.69 C
795 15-10-2013 00:00:00 10.43275 C 94.2113 % 9.54 C
796 16-10-2013 00:00:00 10.04523 C 95.8799 % 9.42 C
797 17-10-2013 00:00:00 12.70972 C 88.6771 % 10.89 C
798 18-10-2013 00:00:00 11.80868 C 95.7083 % 11.15 C
799 19-10-2013 00:00:00 11.72702 C 95.4877 % 11.03 C
800 20-10-2013 00:00:00 15.28507 C 93.8021 % 14.29 C
Sensor: Nr:Datum:Temp:Feuchte:Taupunkt:
Aussen-T/F 801 21-10-2013 00:00:00 15.075 C 89.9861 % 13.45 C
802 22-10-2013 00:00:00 15.7614 C 91.7404 % 14.42 C
803 23-10-2013 00:00:00 15.81476 C 92.6790 % 14.63 C
804 24-10-2013 00:00:00 13.67431 C 95.5069 % 12.97 C
805 25-10-2013 00:00:00 13.01701 C 96.8958 % 12.54 C
806 26-10-2013 00:00:00 16.41144 C 95.1808 % 15.64 C
807 27-10-2013 00:00:00 14.94896 C 83.9028 % 12.25 C
808 28-10-2013 00:00:00 15.40962 C 78.1385 % 11.62 C
809 29-10-2013 00:00:00 11.12569 C 77.4901 % 7.34 C
810 30-10-2013 00:00:00 7.81825 C 86.6702 % 5.74 C
811 31-10-2013 00:00:00 5.27708 C 94.3854 % 4.45 C
812 01-11-2013 00:00:00 9.4316 C 89.5208 % 7.8 C
813 02-11-2013 00:00:00 12.79889 C 90.4354 % 11.27 C
814 03-11-2013 00:00:00 9.93611 C 83.6701 % 7.31 C
815 04-11-2013 00:00:00 9.80526 C 87.0912 % 7.76 C
816 05-11-2013 00:00:00 6.72153 C 87.5556 % 4.81 C
817 06-11-2013 00:00:00 10.70215 C 88.7348 % 8.92 C
818 07-11-2013 00:00:00 15.04132 C 84.5243 % 12.46 C
819 08-11-2013 00:00:00 11.92093 C 93.0372 % 10.83 C
820 09-11-2013 00:00:00 9.48785 C 80.9931 % 6.39 C
821 10-11-2013 00:00:00 6.68715 C 90.9653 % 5.32 C
822 11-11-2013 00:00:00 4.00764 C 96.3542 % 3.48 C
823 12-11-2013 00:00:00 4.41146 C 93.7951 % 3.5 C
824 13-11-2013 00:00:00 6.28491 C 93.5579 % 5.32 C
825 14-11-2013 00:00:00 3.2816 C 95.0833 % 2.57 C
Sensor: Nr:Datum:Temp:Feuchte:Taupunkt:
Aussen-T/F 826 15-11-2013 00:00:00 4.99201 C 90.5035 % 3.57 C
827 16-11-2013 00:00:00 3.05 C 91.8507 % 1.86 C
828 17-11-2013 00:00:00 3.2184 C 94.6285 % 2.44 C
829 18-11-2013 00:00:00 5.38287 C 94.0916 % 4.51 C
830 19-11-2013 00:00:00 6.22 C 91.5647 % 4.95 C
831 20-11-2013 00:00:00 3.96643 C 91.7483 % 2.75 C
832 21-11-2013 00:00:00 4.05603 C 89.4310 % 2.48 C
833 22-11-2013 00:00:00 4.42 C 86.5545 % 2.38 C
834 23-11-2013 00:00:00 7.03092 C 87.0000 % 5.02 C
835 24-11-2013 00:00:00 5.71435 C 88.4739 % 3.96 C
836 25-11-2013 00:00:00 2.65439 C 93.3216 % 1.69 C
837 26-11-2013 00:00:00 0.53125 C 94.5590 % -0.24 C
838 27-11-2013 00:00:00 0.63854 C 92.5035 % -0.43 C
839 28-11-2013 00:00:00 3.45709 C 94.3022 % 2.63 C
840 29-11-2013 00:00:00 5.6434 C 91.5833 % 4.38 C
841 30-11-2013 00:00:00 4.32604 C 93.7951 % 3.42 C
842 01-12-2013 00:00:00 5.01254 C 94.7178 % 4.24 C
843 02-12-2013 00:00:00 4.76458 C 93.0486 % 3.74 C
844 03-12-2013 00:00:00 -0.45729 C 97.1806 % -0.85 C
845 04-12-2013 00:00:00 3.27917 C 91.8924 % 2.09 C
846 05-12-2013 00:00:00 3.93475 C 87.9291 % 2.12 C
847 06-12-2013 00:00:00 3.76181 C 74.9583 % -0.26 C
848 07-12-2013 00:00:00 4.38715 C 85.8194 % 2.23 C
849 08-12-2013 00:00:00 6.92188 C 87.3785 % 4.97 C
850 09-12-2013 00:00:00 6.42222 C 84.1806 % 3.95 C
Sensor: Nr:Datum:Temp:Feuchte:Taupunkt:
Aussen-T/F 851 10-12-2013 00:00:00 3.24896 C 95.9236 % 2.66 C
852 11-12-2013 00:00:00 3.72465 C 96.5903 % 3.23 C
853 12-12-2013 00:00:00 4.08993 C 92.2118 % 2.94 C
854 13-12-2013 00:00:00 2.65694 C 90.5313 % 1.27 C
855 14-12-2013 00:00:00 3.58986 C 92.6923 % 2.52 C
856 15-12-2013 00:00:00 4.99688 C 85.9340 % 2.84 C
857 16-12-2013 00:00:00 1.49676 C 94.6511 % 0.73 C
858 17-12-2013 00:00:00 1.25451 C 95.3924 % 0.6 C
859 18-12-2013 00:00:00 4.19965 C 94.2153 % 3.35 C
860 19-12-2013 00:00:00 8.13715 C 88.2813 % 6.32 C
861 20-12-2013 00:00:00 4.38403 C 92.2708 % 3.24 C
862 21-12-2013 00:00:00 4.81354 C 81.8229 % 1.98 C
863 22-12-2013 00:00:00 8.81493 C 82.7222 % 6.04 C
864 23-12-2013 00:00:00 8.42341 C 85.6230 % 6.16 C
865 24-12-2013 00:00:00 11.57579 C 73.6140 % 7.03 C
866 25-12-2013 00:00:00 8.41944 C 92.4444 % 7.27 C
867 26-12-2013 00:00:00 6.06579 C 94.8195 % 5.3 C
868 27-12-2013 00:00:00 6.6549 C 85.1608 % 4.34 C
869 28-12-2013 00:00:00 9.14444 C 90.1181 % 7.61 C
870 29-12-2013 00:00:00 4.76463 C 93.9695 % 3.88 C
871 30-12-2013 00:00:00 4.17107 C 89.7934 % 2.65 C
872 31-12-2013 00:00:00 2.91045 C 89.5522 % 1.37 C
873 01-01-2014 00:00:00 6.46912 C 86.4737 % 4.38 C
874 02-01-2014 00:00:00 8.31947 C 88.5649 % 6.54 C
875 03-01-2014 00:00:00 8.74861 C 86.5347 % 6.63 C
Sensor: Nr:Datum:Temp:Feuchte:Taupunkt:
Aussen-T/F 876 04-01-2014 00:00:00 7.47049 C 88.5833 % 5.71 C
877 05-01-2014 00:00:00 6.13111 C 91.4622 % 4.85 C
878 06-01-2014 00:00:00 8.33819 C 89.1736 % 6.66 C
879 07-01-2014 00:00:00 10.72882 C 85.7708 % 8.45 C
880 08-01-2014 00:00:00 10.3965 C 86.9027 % 8.31 C
881 09-01-2014 00:00:00 9.27876 C 85.9961 % 7.06 C
882 10-01-2014 00:00:00 5.59896 C 86.9757 % 3.61 C
883 11-01-2014 00:00:00 3.80382 C 93.2049 % 2.81 C
884 12-01-2014 00:00:00 0.34545 C 97.0618 % -0.06 C
885 13-01-2014 00:00:00 3.73194 C 95.9965 % 3.15 C
886 14-01-2014 00:00:00 5.06036 C 94.4536 % 4.25 C
887 15-01-2014 00:00:00 4.1934 C 91.9444 % 3 C
888 16-01-2014 00:00:00 6.5375 C 93.3160 % 5.54 C
889 17-01-2014 00:00:00 6.75 C 92.8021 % 5.67 C
890 18-01-2014 00:00:00 4.5321 C 90.4686 % 3.11 C
891 19-01-2014 00:00:00 4.621 C 92.0569 % 3.44 C
892 20-01-2014 00:00:00 4.32836 C 94.6567 % 3.55 C
893 21-01-2014 00:00:00 3.49792 C 93.6632 % 2.58 C
894 22-01-2014 00:00:00 3.18571 C 95.3022 % 2.51 C
895 23-01-2014 00:00:00 3.72927 C 92.3049 % 2.6 C
896 24-01-2014 00:00:00 3.90268 C 93.5670 % 2.96 C
897 25-01-2014 00:00:00 2.8165 C 94.8000 % 2.07 C
898 26-01-2014 00:00:00 5.11851 C 83.3630 % 2.54 C
899 27-01-2014 00:00:00 4.4199 C 87.2094 % 2.48 C
900 28-01-2014 00:00:00 2.36869 C 88.8889 % 0.73 C
Sensor: Nr:Datum:Temp:Feuchte:Taupunkt:
Aussen-T/F 901 29-01-2014 00:00:00 1.54036 C 85.8253 % -0.57 C
902 30-01-2014 00:00:00 1.98611 C 84.2049 % -0.39 C
903 31-01-2014 00:00:00 1.03819 C 91.0799 % -0.25 C
904 01-02-2014 00:00:00 4.63819 C 89.8646 % 3.12 C
905 02-02-2014 00:00:00 4.14306 C 90.0729 % 2.66 C
906 03-02-2014 00:00:00 1.00938 C 95.5486 % 0.38 C
907 04-02-2014 00:00:00 4.28785 C 89.7083 % 2.75 C
908 05-02-2014 00:00:00 4.74236 C 89.7049 % 3.2 C
909 06-02-2014 00:00:00 8.42431 C 76.6181 % 4.56 C
910 07-02-2014 00:00:00 8.79132 C 78.4410 % 5.25 C
911 08-02-2014 00:00:00 6.5309 C 83.7222 % 3.98 C
912 09-02-2014 00:00:00 5.34375 C 80.9306 % 2.34 C
913 10-02-2014 00:00:00 3.38819 C 87.2500 % 1.48 C
914 11-02-2014 00:00:00 5.41354 C 82.3819 % 2.66 C
915 12-02-2014 00:00:00 5.44028 C 81.1319 % 2.47 C
916 13-02-2014 00:00:00 5.71771 C 88.4479 % 3.96 C
917 14-02-2014 00:00:00 5.64722 C 85.6979 % 3.44 C
918 15-02-2014 00:00:00 9.70669 C 79.3415 % 6.31 C
919 16-02-2014 00:00:00 7.36493 C 80.5694 % 4.25 C
920 17-02-2014 00:00:00 3.59861 C 91.7118 % 2.38 C
921 18-02-2014 00:00:00 3.38715 C 94.0590 % 2.52 C
922 19-02-2014 00:00:00 7.825 C 84.9722 % 5.46 C
923 20-02-2014 00:00:00 8.68958 C 82.6215 % 5.9 C
924 21-02-2014 00:00:00 7.64062 C 84.5451 % 5.21 C
925 22-02-2014 00:00:00 4.99861 C 87.1563 % 3.05 C
Sensor: Nr:Datum:Temp:Feuchte:Taupunkt:
Aussen-T/F 926 23-02-2014 00:00:00 5.94204 C 83.6694 % 3.39 C
927 24-02-2014 00:00:00 5.86389 C 80.9444 % 2.85 C
928 25-02-2014 00:00:00 6.68681 C 82.1910 % 3.87 C
929 26-02-2014 00:00:00 8.58182 C 81.5382 % 5.61 C
930 27-02-2014 00:00:00 5.86275 C 84.1961 % 3.41 C
931 28-02-2014 00:00:00 6.2146 C 87.8248 % 4.35 C
932 01-03-2014 00:00:00 5.44375 C 88.4410 % 3.69 C
933 02-03-2014 00:00:00 3.55069 C 87.5208 % 1.68 C
934 03-03-2014 00:00:00 5.27743 C 86.6458 % 3.24 C
935 04-03-2014 00:00:00 4.21701 C 86.7118 % 2.2 C
936 05-03-2014 00:00:00 4.68235 C 86.5059 % 2.63 C
937 06-03-2014 00:00:00 3.87951 C 89.4306 % 2.3 C
938 07-03-2014 00:00:00 6.23037 C 80.7383 % 3.17 C
939 08-03-2014 00:00:00 7.3847 C 80.0427 % 4.18 C
940 09-03-2014 00:00:00 7.27263 C 76.4772 % 3.42 C
941 10-03-2014 00:00:00 7.44444 C 75.5035 % 3.41 C
942 11-03-2014 00:00:00 8.4184 C 78.6424 % 4.93 C
943 12-03-2014 00:00:00 9.07812 C 74.1354 % 4.72 C
944 13-03-2014 00:00:00 8.16007 C 73.3681 % 3.69 C
945 14-03-2014 00:00:00 7.91944 C 76.8993 % 4.12 C
946 15-03-2014 00:00:00 8.97326 C 77.3021 % 5.22 C
947 16-03-2014 00:00:00 11.50486 C 77.2500 % 7.67 C
948 17-03-2014 00:00:00 10.27882 C 81.5486 % 7.27 C
949 18-03-2014 00:00:00 9.4066 C 83.2882 % 6.72 C
950 19-03-2014 00:00:00 12.2875 C 70.5521 % 7.1 C
Sensor: Nr:Datum:Temp:Feuchte:Taupunkt:
Aussen-T/F 951 20-03-2014 00:00:00 12.49333 C 67.2772 % 6.6 C
952 21-03-2014 00:00:00 13.1375 C 66.5069 % 7.05 C
953 22-03-2014 00:00:00 8.65208 C 83.0799 % 5.95 C
954 23-03-2014 00:00:00 6.03507 C 81.4861 % 3.11 C
955 24-03-2014 00:00:00 5.42632 C 80.7404 % 2.39 C
956 25-03-2014 00:00:00 4.1625 C 82.4271 % 1.44 C
957 26-03-2014 00:00:00 4.56076 C 78.8125 % 1.21 C
958 27-03-2014 00:00:00 8.14604 C 73.6475 % 3.73 C
959 28-03-2014 00:00:00 10.60972 C 66.4167 % 4.62 C
960 29-03-2014 00:00:00 10.34963 C 70.5809 % 5.24 C
961 30-03-2014 00:00:00 9.15619 C 76.1429 % 5.18 C
962 31-03-2014 00:00:00 12.96562 C 65.8924 % 6.75 C
963 01-04-2014 00:00:00 13.77519 C 67.7366 % 7.92 C
964 02-04-2014 00:00:00 13.90458 C 68.9754 % 8.31 C
965 03-04-2014 00:00:00 12.54324 C 77.5811 % 8.74 C
966 04-04-2014 00:00:00 14.95971 C 74.9173 % 10.55 C
967 05-04-2014 00:00:00 13.00531 C 86.2612 % 10.77 C
968 06-04-2014 00:00:00 11.67782 C 83.0879 % 8.91 C
969 07-04-2014 00:00:00 15.95041 C 75.4713 % 11.62 C
970 08-04-2014 00:00:00 12.18521 C 67.1585 % 6.28 C
971 09-04-2014 00:00:00 9.27426 C 75.9154 % 5.25 C
972 10-04-2014 00:00:00 10.31543 C 77.0864 % 6.48 C
973 11-04-2014 00:00:00 14.56849 C 72.5000 % 9.69 C
974 12-04-2014 00:00:00 12.65368 C 70.8982 % 7.52 C
975 13-04-2014 00:00:00 11.60669 C 71.0599 % 6.55 C
Sensor: Nr:Datum:Temp:Feuchte:Taupunkt:
Aussen-T/F 976 14-04-2014 00:00:00 9.7593 C 71.2491 % 4.81 C
977 15-04-2014 00:00:00 7.10171 C 73.7991 % 2.75 C
978 16-04-2014 00:00:00 12.97192 C 49.4521 % 2.65 C
979 17-04-2014 00:00:00 9.85313 C 63.3021 % 3.22 C
980 18-04-2014 00:00:00 10.72049 C 64.8750 % 4.39 C
981 19-04-2014 00:00:00 10.82049 C 71.8993 % 5.96 C
982 20-04-2014 00:00:00 14.91825 C 70.5509 % 9.62 C
983 21-04-2014 00:00:00 12.49479 C 77.9896 % 8.77 C
984 22-04-2014 00:00:00 12.82847 C 85.6076 % 10.48 C
985 23-04-2014 00:00:00 13.43958 C 81.1771 % 10.28 C
986 24-04-2014 00:00:00 15.42535 C 79.0035 % 11.8 C
987 25-04-2014 00:00:00 16.71562 C 74.1319 % 12.09 C
988 26-04-2014 00:00:00 15.2 C 74.7604 % 10.75 C
989 27-04-2014 00:00:00 13.07674 C 81.7986 % 10.04 C
990 28-04-2014 00:00:00 12.80243 C 79.8715 % 9.42 C
991 29-04-2014 00:00:00 13.43403 C 90.3056 % 11.88 C
992 30-04-2014 00:00:00 14.53507 C 84.7500 % 12 C
993 01-05-2014 00:00:00 14.73611 C 81.3611 % 11.58 C
994 02-05-2014 00:00:00 11.71319 C 86.6736 % 9.57 C
995 03-05-2014 00:00:00 10.92708 C 61.0069 % 3.71 C
996 04-05-2014 00:00:00 9.61042 C 68.0590 % 4.02 C
997 05-05-2014 00:00:00 12.60069 C 67.5521 % 6.76 C
998 06-05-2014 00:00:00 13.72083 C 74.2778 % 9.23 C
999 07-05-2014 00:00:00 13.05764 C 84.9931 % 10.6 C
1000 08-05-2014 00:00:00 12.32847 C 84.6146 % 9.81 C
Sensor: Nr:Datum:Temp:Feuchte:Taupunkt:
Aussen-T/F 1001 09-05-2014 00:00:00 15.33403 C 71.0833 % 10.13 C
1002 10-05-2014 00:00:00 12.40903 C 81.6528 % 9.36 C
1003 11-05-2014 00:00:00 11.45764 C 80.1667 % 8.16 C
1004 12-05-2014 00:00:00 11.1941 C 74.9167 % 6.92 C
1005 13-05-2014 00:00:00 10.30729 C 85.3368 % 7.96 C
1006 14-05-2014 00:00:00 10.63542 C 76.9514 % 6.77 C
1007 15-05-2014 00:00:00 10.00382 C 80.4757 % 6.8 C
1008 16-05-2014 00:00:00 13.25347 C 73.1250 % 8.55 C
1009 17-05-2014 00:00:00 14.22292 C 71.7500 % 9.2 C
1010 18-05-2014 00:00:00 15.4809 C 74.3021 % 10.93 C
1011 19-05-2014 00:00:00 17.57188 C 70.6944 % 12.19 C
1012 20-05-2014 00:00:00 19.46562 C 67.3681 % 13.26 C
1013 21-05-2014 00:00:00 20.29792 C 68.1181 % 14.23 C
1014 22-05-2014 00:00:00 20.21806 C 65.7465 % 13.61 C
1015 23-05-2014 00:00:00 15.52639 C 89.6667 % 13.84 C
1016 24-05-2014 00:00:00 14.72993 C 81.1514 % 11.53 C
1017 25-05-2014 00:00:00 15.25071 C 74.9149 % 10.83 C
1018 26-05-2014 00:00:00 16.8625 C 80.3056 % 13.45 C
1019 27-05-2014 00:00:00 15.19431 C 94.7346 % 14.36 C
1020 28-05-2014 00:00:00 14.58118 C 88.4000 % 12.69 C
1021 29-05-2014 00:00:00 13.44653 C 87.1042 % 11.35 C
1022 30-05-2014 00:00:00 13.2316 C 70.4167 % 7.97 C
1023 31-05-2014 00:00:00 13.40382 C 74.2639 % 8.92 C
1024 01-06-2014 00:00:00 15.49273 C 69.6545 % 9.98 C
1025 02-06-2014 00:00:00 15.88943 C 67.9715 % 9.99 C
Sensor: Nr:Datum:Temp:Feuchte:Taupunkt:
Aussen-T/F 1026 03-06-2014 00:00:00 15.78662 C 74.8627 % 11.34 C
1027 04-06-2014 00:00:00 14.95388 C 86.4155 % 12.71 C
1028 05-06-2014 00:00:00 14.55765 C 67.7687 % 8.68 C
1029 06-06-2014 00:00:00 17.20312 C 67.7778 % 11.2 C
1030 07-06-2014 00:00:00 20.77257 C 72.3750 % 15.62 C
1031 08-06-2014 00:00:00 24.09514 C 70.7431 % 18.45 C
1032 09-06-2014 00:00:00 25.74583 C 69.9583 % 19.85 C
1033 10-06-2014 00:00:00 23.66632 C 70.6389 % 18.01 C
1034 11-06-2014 00:00:00 20.10803 C 81.3175 % 16.81 C
1035 12-06-2014 00:00:00 19.97431 C 66.4583 % 13.54 C
1036 13-06-2014 00:00:00 18.37014 C 68.1597 % 12.4 C
1037 14-06-2014 00:00:00 17.27465 C 65.5104 % 10.76 C
1038 15-06-2014 00:00:00 16.86944 C 67.1875 % 10.75 C
1039 16-06-2014 00:00:00 15.61944 C 74.7396 % 11.15 C
1040 17-06-2014 00:00:00 17.41354 C 66.8819 % 11.2 C
1041 18-06-2014 00:00:00 17.76319 C 71.4931 % 12.54 C
1042 19-06-2014 00:00:00 15.70791 C 75.5252 % 11.4 C
1043 20-06-2014 00:00:00 15.64143 C 71.1667 % 10.44 C
1044 21-06-2014 00:00:00 16.62118 C 65.5903 % 10.15 C
1045 22-06-2014 00:00:00 16.62782 C 66.3415 % 10.33 C
1046 23-06-2014 00:00:00 17.14792 C 65.1910 % 10.56 C
1047 24-06-2014 00:00:00 16.64978 C 71.6277 % 11.5 C
1048 25-06-2014 00:00:00 17.29096 C 56.5426 % 8.58 C
1049 26-06-2014 00:00:00 16.18958 C 64.0764 % 9.4 C
1050 27-06-2014 00:00:00 17.54167 C 67.2604 % 11.41 C
Sensor: Nr:Datum:Temp:Feuchte:Taupunkt:
Aussen-T/F 1051 28-06-2014 00:00:00 16.28043 C 87.3950 % 14.18 C
1052 29-06-2014 00:00:00 14.67192 C 93.3251 % 13.61 C
1053 30-06-2014 00:00:00 16.05247 C 75.2167 % 11.67 C
1054 01-07-2014 00:00:00 15.65035 C 70.2917 % 10.26 C
1055 02-07-2014 00:00:00 16.86146 C 65.5313 % 10.37 C
1056 03-07-2014 00:00:00 19.78889 C 59.6493 % 11.72 C
1057 04-07-2014 00:00:00 20.36076 C 67.5382 % 14.16 C
1058 05-07-2014 00:00:00 20.4 C 77.3439 % 16.3 C
1059 06-07-2014 00:00:00 23.48509 C 69.7818 % 17.65 C
1060 07-07-2014 00:00:00 19.86367 C 64.8202 % 13.05 C
1061 08-07-2014 00:00:00 15.57633 C 89.8898 % 13.92 C
1062 09-07-2014 00:00:00 12.97083 C 95.1667 % 12.22 C
1063 10-07-2014 00:00:00 17.68292 C 90.2000 % 16.06 C
1064 11-07-2014 00:00:00 18.42369 C 88.6466 % 16.51 C
1065 12-07-2014 00:00:00 18.68363 C 88.1018 % 16.67 C
1066 13-07-2014 00:00:00 19.06941 C 85.5922 % 16.6 C
1067 14-07-2014 00:00:00 19.60206 C 79.5021 % 15.96 C
1068 15-07-2014 00:00:00 21.3216 C 70.6901 % 15.78 C
1069 16-07-2014 00:00:00 21.88732 C 74.8829 % 17.23 C
1070 17-07-2014 00:00:00 23.77903 C 70.2742 % 18.04 C
1071 18-07-2014 00:00:00 24.87935 C 65.5097 % 17.97 C
1072 19-07-2014 00:00:00 27.76989 C 58.4086 % 18.86 C
1073 20-07-2014 00:00:00 22.68715 C 80.6840 % 19.19 C
1074 21-07-2014 00:00:00 20.29965 C 91.0660 % 18.79 C
1075 22-07-2014 00:00:00 23.6856 C 82.0494 % 20.44 C
Sensor: Nr:Datum:Temp:Feuchte:Taupunkt:
Aussen-T/F 1076 23-07-2014 00:00:00 23.11788 C 73.8869 % 18.2 C
1077 24-07-2014 00:00:00 20.63922 C 73.5020 % 15.74 C
1078 25-07-2014 00:00:00 21.8193 C 72.9825 % 16.76 C
1079 26-07-2014 00:00:00 21.92 C 74.3097 % 17.14 C
1080 27-07-2014 00:00:00 19.66694 C 83.9339 % 16.88 C
1081 28-07-2014 00:00:00 22.3284 C 78.8580 % 18.48 C
1082 29-07-2014 00:00:00 19.88194 C 95.8125 % 19.19 C
1083 30-07-2014 00:00:00 19.93194 C 85.4097 % 17.41 C
1084 31-07-2014 00:00:00 20.20645 C 77.0896 % 16.06 C
1085 01-08-2014 00:00:00 20.08438 C 81.7153 % 16.86 C
1086 02-08-2014 00:00:00 20.10868 C 84.8264 % 17.48 C
1087 03-08-2014 00:00:00 21.3566 C 81.2743 % 18.02 C
1088 04-08-2014 00:00:00 19.00347 C 86.5799 % 16.71 C
1089 05-08-2014 00:00:00 18.77049 C 82.0208 % 15.64 C
1090 06-08-2014 00:00:00 17.59618 C 84.4201 % 14.94 C
1091 07-08-2014 00:00:00 18.9934 C 85.7986 % 16.56 C
1092 08-08-2014 00:00:00 18.87604 C 89.5625 % 17.12 C
1093 09-08-2014 00:00:00 20.16771 C 80.6076 % 16.73 C
1094 10-08-2014 00:00:00 19.0125 C 90.0208 % 17.34 C
1095 11-08-2014 00:00:00 17.0066 C 81.0000 % 13.72 C
1096 12-08-2014 00:00:00 17.62431 C 72.1944 % 12.56 C

Maximal/Minimal-Werte vom 13.08.2011 - 12.08.2014

Sensor Min Max Avg
Temp
(Aussen-T/F)
-15.3 °C
07-02-2012  08:00:00
36.9 °C
19-08-2012  16:30:00
10.57 °C
Feuchte
(Aussen-T/F)
20 %
15-08-2011  15:17:02
100 %
07-10-2012  03:05:00
81.44 %
Taupunkt
(Aussen-T/F)
-15.35 C
02-02-2012  00:00:00
21.36 C
19-06-2013  00:00:00
7.37 C

Die Daten stammen von einer Davis Vantage Pro 2 Wetter-Station und werden unter Linux mit der Software wview2wettercgi und aufbereitet. Alle Angaben erfolgen ohne Gewähr für ihre Vollständigkeit oder Richtigkeit.
Kontakt: Rainer Krienke krienke@uni-koblenz.de . Meine Webseiten an der Uni Koblenz oder privat.
Version: $Revision: 0.78 $